[[{"header":{"parameterUnit":"m.s-1","parameterCategory":1,"la1":30.2991,"la2":30.254,"lo1":-89.0895,"lo2":-89.0444,"dy":0.0017,"dx":0.0017,"nx":28,"ny":28,"refTime":"2024-04-27T03:00:00:Z","depth":0,"parameterNumber":2,"parameterNumberName":"U-component_of_WINDS"},"data":[0,0,0,0,0,0,0,0,0,0,0,0,0,0,0,0,0,0,0,0,0,0,0,0,0,0,0,0,0,0,0,0,0,0,0,0,0,0,0,0,0,0,0,0,0,0,0,0,0,0,0,0,0,0,0,0,0,0,-7.3375,-7.3377,0,-7.3567,-7.3569,-7.3571,-7.3598,-7.3596,-7.3595,-7.3593,-7.3789,-7.3796,-7.3802,0,0,0,0,0,0,0,0,0,0,0,0,0,-7.3033,-7.3039,-7.3375,-7.3377,-7.338,-7.3567,-7.3569,-7.3572,-7.3598,-7.3596,-7.3594,-7.3592,-7.3787,-7.3795,-7.3803,0,0,0,0,0,0,0,0,0,0,0,0,0,-7.3199,-7.3041,-7.3374,-7.3415,-7.3421,-7.3566,-7.3569,-7.3573,-7.3599,-7.3596,-7.3594,-7.3591,-7.3784,-7.3794,-7.3804,-7.3921,0,0,-7.3836,-7.384,0,0,0,0,0,0,0,0,-7.3189,-7.3211,-7.3407,-7.3413,-7.3419,-7.3556,-7.3521,-7.369,-7.36,-7.3531,-7.3593,-7.359,-7.3713,-7.3729,-7.3771,-7.3931,-7.3939,-7.3837,-7.3843,-7.3847,-7.385,0,0,0,0,0,0,0,-7.3178,-7.3203,-7.3451,-7.341,-7.3417,-7.3425,-7.3445,-7.3553,-7.3635,-7.3537,-7.3539,-7.3562,-7.3716,-7.3761,-7.3776,-7.3942,-7.3836,-7.3845,-7.3852,-7.3856,-7.421,-7.4213,0,0,0,0,0,0,-7.3159,-7.3193,-7.3445,-7.3457,-7.3295,-7.3433,-7.3456,-7.3515,-7.3634,-7.365,-7.3564,-7.3562,-7.3745,-7.3764,-7.3783,-7.3929,-7.3847,-7.3857,-7.3863,-7.4207,-7.4211,-7.4214,0,0,0,0,0,0,-7.3151,-7.3181,-7.3437,-7.3326,-7.3359,-7.3442,-7.3507,-7.352,-7.3565,-7.3654,-7.3669,-7.3595,-7.3744,-7.3769,-7.3887,-7.3936,-7.3862,-7.3871,-7.4203,-7.4208,-7.4212,-7.4221,0,0,0,0,0,0,-7.3141,-7.3178,-7.3222,-7.3327,-7.3365,-7.3537,-7.351,-7.3526,-7.3583,-7.3582,-7.3687,-7.3702,-7.3743,-7.3872,-7.3898,-7.3949,-7.3879,-7.4199,-7.4205,-7.4211,-7.4217,-7.4225,-7.4233,0,0,0,0,0,-7.3129,-7.3217,-7.3225,-7.3255,-7.3422,-7.354,-7.3562,-7.3608,-7.3586,-7.3632,-7.3691,-7.3698,-7.3927,-7.3884,-7.3913,-7.3968,-7.4196,-7.4203,-7.421,-7.4213,-7.4224,-7.4233,0,0,0,0,0,0,-7.3115,-7.3231,-7.3241,-7.3365,-7.3443,-7.3544,-7.3603,-7.3618,-7.3703,-7.3699,-7.3753,-7.3777,-7.3893,-7.3943,-7.3893,-7.409,-7.406,-7.4073,-7.4052,-7.4063,-7.4071,-7.4055,-7.3888,0,0,0,0,0,-7.3126,-7.3212,-7.3309,-7.3409,-7.3448,-7.3519,-7.3572,-7.3602,-7.3684,-7.3717,-7.3783,-7.3863,-7.3954,-7.4011,-7.4099,-7.4226,-7.4249,-7.4278,-7.4286,-7.4293,-7.4303,-7.4375,-7.4389,-7.4238,-7.4238,-7.4238,0,0,-7.315,-7.3225,-7.3275,-7.3408,-7.3472,-7.356,-7.3546,-7.3639,-7.3705,-7.3731,-7.3847,-7.3899,-7.3992,-7.4116,-7.4173,-7.4161,-7.435,-7.4302,-7.4306,-7.4313,-7.4383,-7.4398,-7.441,-7.4243,-7.4242,-7.4241,0,0,-7.3239,-7.3304,-7.3394,-7.3459,-7.3557,-7.3604,-7.3626,-7.3727,-7.3763,-7.3881,-7.3903,-7.3983,-7.4137,-7.4202,-7.4256,-7.4375,-7.4385,-7.4402,-7.4443,-7.4513,-7.4525,-7.4535,-7.4577,-7.4592,-7.4412,-7.4412,-7.4412,0,-7.3256,-7.3389,-7.3439,-7.3533,-7.3591,-7.362,-7.3713,-7.3774,-7.3895,-7.3935,-7.392,-7.4115,-7.418,-7.432,-7.4349,-7.4392,-7.4419,-7.4388,-7.4519,-7.453,-7.4541,-7.4582,-7.4597,-7.4414,-7.4414,-7.4413,-7.4413,0,-7.3405,-7.3498,-7.356,-7.3677,-7.3743,-7.3835,-7.3901,-7.3962,-7.3987,-7.4037,-7.4158,-7.4238,-7.4343,-7.4379,-7.4404,-7.4523,-7.4512,-7.4508,-7.4479,-7.4556,-7.4595,-7.4611,-7.4416,-7.4415,-7.4415,-7.4414,0,0,-7.3486,-7.3632,-7.3654,-7.3708,-7.382,-7.3892,-7.3988,-7.4092,-7.4143,-7.4227,-7.4308,-7.444,-7.4438,-7.4499,-7.4532,-7.4594,-7.4683,-7.4582,-7.4585,-7.4597,-7.482,-7.4821,-7.4838,-7.4692,-7.4695,-7.4698,-7.4812,0,-7.3586,-7.3756,-7.3806,-7.3949,-7.4036,-7.4067,-7.4151,-7.4229,-7.4279,-7.436,-7.4416,-7.4508,-7.4498,-7.4535,-7.4598,-7.4658,-7.4728,-7.4651,-7.4768,-7.4771,-7.4741,-7.4858,-7.486,-7.4963,-7.4827,-7.483,-7.4832,0,-7.3724,-7.3812,-7.3963,-7.4066,-7.4105,-7.4178,-7.4279,-7.4357,-7.4447,-7.448,-7.455,-7.4579,-7.4681,-7.4649,-7.4791,-7.4738,-7.4789,-7.4827,-7.4832,-7.4843,-7.4804,-7.4871,-7.4997,-7.5011,-7.4856,-7.4855,-7.4853,0,-7.3767,-7.3923,-7.4034,-7.408,-7.4203,-7.4254,-7.4308,-7.4396,-7.4456,-7.4545,-7.4584,-7.4684,-7.4737,-7.4814,-7.487,-7.4842,-7.5008,-7.498,-7.5037,-7.5036,-7.5068,-7.5064,-7.5202,-7.5104,-7.5104,-7.5104,-7.5104,0,-7.3872,-7.3963,-7.4055,-7.4123,-7.4227,-7.4286,-7.4387,-7.4443,-7.4522,-7.4602,-7.4636,-7.4711,-7.4781,-7.4866,-7.4911,-7.5022,-7.5046,-7.5076,-7.5086,-7.5071,-7.5067,-7.5104,-7.5097,-7.5108,-7.5107,-7.5106,-7.5106,0,-7.3935,-7.4,-7.4123,-7.4231,-7.4261,-7.4332,-7.4425,-7.4493,-7.4546,-7.4648,-7.4675,-7.4759,-7.4861,-7.4925,-7.5054,-7.5085,-7.5206,-7.5215,-7.5175,-7.518,-7.5233,-7.5226,-7.5397,-7.5422,-7.5309,-7.531,-7.5311,0,-7.3996,-7.4068,-7.4184,-7.424,-7.4295,-7.4385,-7.4448,-7.4509,-7.4573,-7.4683,-7.4738,-7.4843,-7.4929,-7.5091,-7.5163,-7.5263,-7.5274,-7.5327,-7.5289,-7.5272,-7.5273,-7.5268,-7.5275,-7.5332,-7.5333,-7.5334,-7.5334,0,-7.4099,-7.4129,-7.4216,-7.4317,-7.4391,-7.4473,-7.4555,-7.4599,-7.4676,-7.4746,-7.485,-7.4918,-7.5051,-7.5155,-7.5262,-7.5318,-7.5339,-7.5347,-7.5365,-7.5349,-7.5323,-7.5337,-7.519,-7.5341,-7.5341,-7.534,-7.534,-7.5339,-7.4163,-7.4228,-7.432,-7.4418,-7.4487,-7.4564,-7.4634,-7.4697,-7.4785,-7.4898,-7.4931,-7.504,-7.5132,-7.5278,-7.5337,-7.5425,-7.5418,-7.5444,-7.5451,-7.5456,-7.5456,-7.5311,-7.5445,-7.5445,-7.5445,-7.5445,-7.5445,0,-7.4266,-7.4328,-7.4418,-7.4532,-7.4609,-7.4625,-7.4717,-7.4781,-7.4877,-7.4961,-7.5047,-7.5168,-7.527,-7.5352,-7.5457,-7.5511,-7.5524,-7.5537,-7.5532,-7.5545,-7.5457,-7.543,-7.5525,-7.5525,-7.5525,-7.5525,-7.5525,-7.5525,-7.4329,-7.444,-7.4481,-7.4629,-7.4691,-7.4798,-7.485,-7.4922,-7.4989,-7.5124,-7.5208,-7.5262,-7.5346,-7.5458,-7.5552,-7.5574,-7.561,-7.5621,-7.5644,-7.556,-7.5551,-7.5542,-7.5517,-7.5629,-7.5629,-7.5725,-7.5726,-7.5727]},{"header":{"parameterUnit":"m.s-1","parameterCategory":1,"la1":30.2991,"la2":30.254,"lo1":-89.0895,"lo2":-89.0444,"dy":0.0017,"dx":0.0017,"nx":28,"ny":28,"refTime":"2024-04-27T03:00:00:Z","depth":0,"parameterNumber":3,"parameterNumberName":"V-component_of_WINDS"},"data":[0,0,0,0,0,0,0,0,0,0,0,0,0,0,0,0,0,0,0,0,0,0,0,0,0,0,0,0,0,0,0,0,0,0,0,0,0,0,0,0,0,0,0,0,0,0,0,0,0,0,0,0,0,0,0,0,0,0,5.0864,5.0865,0,5.0958,5.096,5.0961,5.1017,5.1018,5.1018,5.1018,5.1112,5.1114,5.1116,0,0,0,0,0,0,0,0,0,0,0,0,0,5.0731,5.0733,5.0863,5.0865,5.0866,5.0958,5.096,5.0961,5.1017,5.1018,5.1018,5.1018,5.1111,5.1114,5.1116,0,0,0,0,0,0,0,0,0,0,0,0,0,5.0803,5.0734,5.0863,5.0905,5.091,5.0958,5.096,5.0961,5.1017,5.1018,5.1018,5.1018,5.111,5.1113,5.1117,5.1129,0,0,5.1127,5.1128,0,0,0,0,0,0,0,0,5.0799,5.0808,5.0898,5.0902,5.0908,5.0977,5.0947,5.1017,5.1017,5.0976,5.1018,5.1019,5.1066,5.1073,5.109,5.1134,5.1138,5.1127,5.1129,5.1131,5.1132,0,0,0,0,0,0,0,5.0794,5.0804,5.0901,5.0899,5.0905,5.0919,5.093,5.0961,5.1018,5.098,5.0984,5.0995,5.1069,5.1087,5.1093,5.1139,5.1127,5.113,5.1132,5.1133,5.1203,5.1203,0,0,0,0,0,0,5.0783,5.08,5.0898,5.0904,5.0854,5.0921,5.0933,5.0954,5.1018,5.1028,5.0995,5.0997,5.1081,5.1089,5.1096,5.1118,5.1131,5.1134,5.1136,5.1203,5.1203,5.1202,0,0,0,0,0,0,5.078,5.0791,5.0894,5.0853,5.0867,5.0923,5.0946,5.0956,5.0973,5.1029,5.1039,5.1002,5.1081,5.1091,5.1122,5.1122,5.1135,5.1138,5.1203,5.1203,5.1203,5.116,0,0,0,0,0,0,5.0776,5.0789,5.0794,5.0853,5.0869,5.0918,5.0946,5.0957,5.098,5.0984,5.1038,5.1048,5.1082,5.1117,5.1125,5.1127,5.1141,5.1203,5.1203,5.1203,5.1162,5.1158,5.1155,0,0,0,0,0,5.0771,5.0777,5.0794,5.0806,5.0877,5.0918,5.0927,5.0968,5.0979,5.0985,5.1022,5.1046,5.1121,5.1119,5.1129,5.1132,5.1203,5.1203,5.1203,5.1163,5.1159,5.1156,0,0,0,0,0,0,5.0714,5.0785,5.0805,5.083,5.0868,5.0927,5.0936,5.0962,5.0996,5.0998,5.1046,5.1058,5.1085,5.1111,5.1109,5.115,5.1165,5.1167,5.1131,5.1128,5.1125,5.1118,5.1144,0,0,0,0,0,5.0705,5.0733,5.0793,5.081,5.0828,5.0879,5.0898,5.0927,5.0967,5.0983,5.1021,5.1058,5.1091,5.1111,5.1143,5.1166,5.118,5.1173,5.117,5.1167,5.1168,5.1186,5.1185,5.1201,5.1201,5.1201,0,0,5.0686,5.0728,5.0742,5.08,5.0832,5.0861,5.0891,5.0919,5.0941,5.0986,5.1019,5.1048,5.1094,5.1122,5.1136,5.1145,5.1167,5.1167,5.1164,5.1167,5.1186,5.1184,5.1182,5.1201,5.1201,5.1201,0,0,5.0665,5.0699,5.0719,5.0752,5.0802,5.0837,5.0841,5.0898,5.092,5.0954,5.099,5.1017,5.107,5.1103,5.1126,5.1124,5.1149,5.1133,5.1116,5.1133,5.1132,5.1131,5.1132,5.1132,5.1133,5.1133,5.1133,0,5.0634,5.0679,5.0725,5.0753,5.0778,5.0823,5.0844,5.0874,5.0931,5.0948,5.0957,5.103,5.1063,5.1101,5.1101,5.1117,5.1125,5.1126,5.1129,5.1128,5.1128,5.113,5.113,5.1131,5.1131,5.1132,5.1132,0,5.0641,5.0671,5.0681,5.0739,5.0765,5.0789,5.0839,5.086,5.0888,5.0922,5.0957,5.1,5.1044,5.1055,5.108,5.1098,5.1102,5.1119,5.1136,5.1124,5.1126,5.1127,5.1128,5.1129,5.113,5.113,0,0,5.0584,5.0671,5.0673,5.0702,5.0763,5.0787,5.0814,5.086,5.0878,5.0917,5.0942,5.0989,5.1008,5.1034,5.1064,5.1079,5.1078,5.1095,5.1097,5.1092,5.1103,5.109,5.109,5.1095,5.1096,5.1096,5.11,0,5.0574,5.0626,5.067,5.0706,5.0737,5.0783,5.0807,5.0847,5.0881,5.0912,5.0948,5.0982,5.1002,5.1019,5.1036,5.1074,5.1081,5.1075,5.112,5.1121,5.1108,5.1091,5.1077,5.1078,5.1101,5.1101,5.1101,0,5.0568,5.0609,5.0649,5.0711,5.0725,5.0746,5.0793,5.0822,5.087,5.0893,5.0926,5.0958,5.0991,5.1005,5.1051,5.1046,5.1067,5.109,5.1091,5.1097,5.111,5.1098,5.108,5.108,5.1103,5.1103,5.1103,0,5.0526,5.0591,5.0624,5.0646,5.0719,5.0733,5.0764,5.0812,5.0838,5.0879,5.0897,5.094,5.0964,5.0998,5.1042,5.1048,5.1085,5.1101,5.1106,5.1105,5.1112,5.1111,5.1097,5.1124,5.1124,5.1124,5.1124,0,5.0511,5.0534,5.0607,5.0627,5.0655,5.0706,5.0733,5.0767,5.0811,5.084,5.0881,5.0907,5.0964,5.0997,5.1032,5.1067,5.1077,5.1097,5.1107,5.1094,5.1092,5.1109,5.1111,5.1124,5.1124,5.1124,5.1124,0,5.0468,5.0517,5.0557,5.0624,5.0642,5.066,5.0717,5.0739,5.0777,5.0813,5.0824,5.0882,5.0924,5.0973,5.1029,5.1053,5.1085,5.1098,5.107,5.1075,5.1078,5.1078,5.1076,5.108,5.1102,5.1102,5.1101,0,5.0455,5.0474,5.0545,5.0568,5.0598,5.0634,5.0662,5.0715,5.0742,5.0801,5.0816,5.0862,5.0901,5.0966,5.1013,5.1058,5.1073,5.1069,5.108,5.1068,5.1075,5.1074,5.1077,5.1066,5.1066,5.1065,5.1065,0,5.0428,5.0453,5.0491,5.054,5.0573,5.0613,5.0655,5.0672,5.0733,5.0762,5.0806,5.0837,5.0898,5.0943,5.0994,5.1026,5.1057,5.1062,5.1066,5.1054,5.1037,5.1048,5.1063,5.1061,5.1062,5.1062,5.1062,5.1062,5.0401,5.0422,5.0476,5.0519,5.0557,5.0597,5.0622,5.0665,5.0703,5.0757,5.0786,5.0831,5.0882,5.0955,5.0987,5.1023,5.1033,5.1037,5.1039,5.104,5.1037,5.1031,5.1032,5.1032,5.1032,5.1033,5.1033,0,5.0378,5.0416,5.0455,5.0515,5.0549,5.0577,5.0626,5.0653,5.0693,5.0738,5.0778,5.0831,5.0876,5.0929,5.0978,5.0997,5.1013,5.1009,5.1008,5.1016,5.1025,5.1017,5.0996,5.0996,5.0996,5.0996,5.0996,5.0996,5.037,5.0408,5.044,5.0498,5.0536,5.0582,5.0608,5.0645,5.0683,5.0741,5.078,5.0815,5.0864,5.0918,5.0962,5.0977,5.0993,5.0986,5.1004,5.1011,5.1014,5.1017,5.1011,5.0988,5.0988,5.0993,5.0993,5.0993]}]]